KLM54JD EGPH-EGLL

Flight info

Callsign KLM54JD
Flight time N/A
Altitude 31000
Route GOSAM P600 FENIK L612 NAVSO DCT AKOMU DCT VAMEB DCT NUGRA
Aircraft B738/M-SDE2E3FGHIRWXY/LB1

Departure

Time N/A
Airport Edinburgh Airport (EGPH)

Arrival

Time 2026-04-30 17:56
Airport London Heathrow Airport (EGLL)
Time Latitude Longitude Altitude Speed Heading
2026-04-30 17:39 52.07346 -1.26680 17406 ft 320 kts 140°
2026-04-30 17:41 51.94893 -1.09446 14915 ft 298 kts 140°
2026-04-30 17:42 51.91749 -1.05115 14156 ft 298 kts 140°
2026-04-30 17:42 51.87004 -0.98594 12928 ft 298 kts 140°
2026-04-30 17:43 51.84377 -0.93478 12175 ft 299 kts 118°
2026-04-30 17:44 51.81675 -0.84481 10997 ft 291 kts 118°
2026-04-30 17:44 51.79091 -0.75986 10146 ft 270 kts 118°
2026-04-30 17:46 51.72097 -0.70000 8421 ft 251 kts 199°
2026-04-30 17:47 51.65953 -0.74402 7049 ft 238 kts 201°
2026-04-30 17:48 51.59930 -0.78748 5491 ft 233 kts 200°
2026-04-30 17:48 51.55653 -0.81865 4278 ft 219 kts 200°
2026-04-30 17:49 51.50249 -0.83657 3065 ft 183 kts 176°
2026-04-30 17:50 51.47793 -0.79228 2977 ft 154 kts 99°
2026-04-30 17:51 51.47705 -0.74267 3004 ft 150 kts 94°
2026-04-30 17:52 51.47709 -0.69222 2623 ft 151 kts 93°
2026-04-30 17:53 51.47722 -0.61042 1646 ft 146 kts 92°
2026-04-30 17:54 51.47734 -0.55003 924 ft 125 kts 90°
2026-04-30 17:55 51.47748 -0.49340 222 ft 123 kts 90°
2026-04-30 17:56 51.47726 -0.46188 88 ft 14 kts 134°
2026-04-30 17:57 51.47590 -0.46018 88 ft 6 kts 167°
2026-04-30 17:58 51.47510 -0.45838 88 ft 12 kts 92°
2026-04-30 17:59 51.47508 -0.45332 89 ft 13 kts 89°
2026-04-30 18:00 51.47507 -0.44776 88 ft 12 kts 91°
2026-04-30 18:00 51.47503 -0.44373 86 ft 12 kts 90°
2026-04-30 18:01 51.47492 -0.44097 87 ft 12 kts 126°
2026-04-30 18:02 51.47247 -0.44061 88 ft 12 kts 180°
2026-04-30 18:02 51.47003 -0.44059 87 ft 11 kts 179°
2026-04-30 18:03 51.46777 -0.44057 87 ft 10 kts 180°
2026-04-30 18:04 51.46615 -0.44056 86 ft 0 kts 180°
2026-04-30 18:06 51.46405 -0.44116 87 ft 14 kts 209°
2026-04-30 18:07 51.46311 -0.44641 87 ft 13 kts 237°
2026-04-30 18:08 51.46086 -0.44976 86 ft 18 kts 220°
2026-04-30 18:09 51.45701 -0.45258 85 ft 16 kts 129°
2026-04-30 18:10 51.45797 -0.44847 87 ft 2 kts 331°
2026-04-30 18:11 51.45819 -0.44867 86 ft 0 kts 330°